Year,Month,Day,Hour,Minute,Value (Times are PST for temperature in C)
2011,05,29,00,00,7.70
2011,05,29,00,01,7.70
2011,05,29,00,02,7.70
2011,05,29,00,03,7.70
2011,05,29,00,04,7.70
2011,05,29,00,05,7.70
2011,05,29,00,06,7.70
2011,05,29,00,07,7.60
2011,05,29,00,08,7.60
2011,05,29,00,09,7.60
2011,05,29,00,10,7.60
2011,05,29,00,11,7.60
2011,05,29,00,12,7.60
2011,05,29,00,13,7.60
2011,05,29,00,14,7.60
2011,05,29,00,15,7.60
2011,05,29,00,16,7.60
2011,05,29,00,17,7.60
2011,05,29,00,18,7.60
2011,05,29,00,19,7.50
2011,05,29,00,20,7.50
2011,05,29,00,21,7.50
2011,05,29,00,22,7.50
2011,05,29,00,23,7.40
2011,05,29,00,24,7.40
2011,05,29,00,25,7.40
2011,05,29,00,26,7.30
2011,05,29,00,27,7.30
2011,05,29,00,28,7.30
2011,05,29,00,29,7.30
2011,05,29,00,30,7.20
2011,05,29,00,31,7.20
2011,05,29,00,32,7.20
2011,05,29,00,33,7.20
2011,05,29,00,34,7.20
2011,05,29,00,35,7.20
2011,05,29,00,36,7.20
2011,05,29,00,37,7.20
2011,05,29,00,38,7.20
2011,05,29,00,39,7.20
2011,05,29,00,40,7.20
2011,05,29,00,41,7.20
2011,05,29,00,42,7.20
2011,05,29,00,43,7.20
2011,05,29,00,44,7.20
2011,05,29,00,45,7.20
2011,05,29,00,46,7.20
2011,05,29,00,47,7.20
2011,05,29,00,48,7.20
2011,05,29,00,49,7.20
2011,05,29,00,50,7.20
2011,05,29,00,51,7.20
2011,05,29,00,52,7.20
2011,05,29,00,53,7.20
2011,05,29,00,54,7.20
2011,05,29,00,55,7.20
2011,05,29,00,56,7.20
2011,05,29,00,57,7.20
2011,05,29,00,58,7.20
2011,05,29,00,59,7.20
2011,05,29,01,00,7.20
2011,05,29,01,01,7.10
2011,05,29,01,02,7.10
2011,05,29,01,03,7.10
2011,05,29,01,04,7.10
2011,05,29,01,05,7.10
2011,05,29,01,06,7.10
2011,05,29,01,07,7.00
2011,05,29,01,08,7.00
2011,05,29,01,09,7.00
2011,05,29,01,10,7.00
2011,05,29,01,11,7.00
2011,05,29,01,12,6.90
2011,05,29,01,13,7.00
2011,05,29,01,14,7.00
2011,05,29,01,15,7.00
2011,05,29,01,16,7.00
2011,05,29,01,17,7.00
2011,05,29,01,18,7.00
2011,05,29,01,19,7.00
2011,05,29,01,20,7.00
2011,05,29,01,21,7.00
2011,05,29,01,22,6.90
2011,05,29,01,23,6.90
2011,05,29,01,24,6.90
2011,05,29,01,25,6.90
2011,05,29,01,26,6.90
2011,05,29,01,27,6.90
2011,05,29,01,28,6.90
2011,05,29,01,29,6.90
2011,05,29,01,30,6.90
2011,05,29,01,31,6.90
2011,05,29,01,32,6.90
2011,05,29,01,33,6.80
2011,05,29,01,34,6.80
2011,05,29,01,35,6.80
2011,05,29,01,36,6.80
2011,05,29,01,37,6.80
2011,05,29,01,38,6.80
2011,05,29,01,39,6.80
2011,05,29,01,40,6.70
2011,05,29,01,41,6.70
2011,05,29,01,42,6.70
2011,05,29,01,43,6.70
2011,05,29,01,44,6.70
2011,05,29,01,45,6.70
2011,05,29,01,46,6.70
2011,05,29,01,47,6.70
2011,05,29,01,48,6.70
2011,05,29,01,49,6.70
2011,05,29,01,50,6.70
2011,05,29,01,51,6.80
2011,05,29,01,52,6.70
2011,05,29,01,53,6.70
2011,05,29,01,54,6.70
2011,05,29,01,55,6.70
2011,05,29,01,56,6.70
2011,05,29,01,57,6.70
2011,05,29,01,58,6.70
2011,05,29,01,59,6.70
2011,05,29,02,00,6.80
2011,05,29,02,01,6.80
2011,05,29,02,02,6.80
2011,05,29,02,03,6.80
2011,05,29,02,04,6.80
2011,05,29,02,05,6.80
2011,05,29,02,06,6.70
2011,05,29,02,07,6.70
2011,05,29,02,08,6.70
2011,05,29,02,09,6.60
2011,05,29,02,10,6.60
2011,05,29,02,11,6.60
2011,05,29,02,12,6.60
2011,05,29,02,13,6.60
2011,05,29,02,14,6.60
2011,05,29,02,15,6.60
2011,05,29,02,16,6.60
2011,05,29,02,17,6.60
2011,05,29,02,18,6.60
2011,05,29,02,19,6.60
2011,05,29,02,20,6.60
2011,05,29,02,21,6.60
2011,05,29,02,22,6.60
2011,05,29,02,23,6.60
2011,05,29,02,24,6.60
2011,05,29,02,25,6.60
2011,05,29,02,26,6.60
2011,05,29,02,27,6.50
2011,05,29,02,28,6.50
2011,05,29,02,29,6.50
2011,05,29,02,30,6.50
2011,05,29,02,31,6.40
2011,05,29,02,32,6.40
2011,05,29,02,33,6.40
2011,05,29,02,34,6.40
2011,05,29,02,35,6.40
2011,05,29,02,36,6.40
2011,05,29,02,37,6.40
2011,05,29,02,38,6.40
2011,05,29,02,39,6.40
2011,05,29,02,40,6.40
2011,05,29,02,41,6.40
2011,05,29,02,42,6.30
2011,05,29,02,43,6.30
2011,05,29,02,44,6.30
2011,05,29,02,45,6.30
2011,05,29,02,46,6.30
2011,05,29,02,47,6.30
2011,05,29,02,48,6.30
2011,05,29,02,49,6.30
2011,05,29,02,50,6.30
2011,05,29,02,51,6.20
2011,05,29,02,52,6.20
2011,05,29,02,53,6.20
2011,05,29,02,54,6.20
2011,05,29,02,55,6.20
2011,05,29,02,56,6.20
2011,05,29,02,57,6.20
2011,05,29,02,58,6.20
2011,05,29,02,59,6.20
2011,05,29,03,00,6.20
2011,05,29,03,01,6.20
2011,05,29,03,02,6.20
2011,05,29,03,03,6.20
2011,05,29,03,04,6.20
2011,05,29,03,05,6.20
2011,05,29,03,06,6.20
2011,05,29,03,07,6.20
2011,05,29,03,08,6.20
2011,05,29,03,09,6.20
2011,05,29,03,10,6.10
2011,05,29,03,11,6.10
2011,05,29,03,12,6.10
2011,05,29,03,13,6.10
2011,05,29,03,14,6.00
2011,05,29,03,15,6.00
2011,05,29,03,16,6.00
2011,05,29,03,17,6.00
2011,05,29,03,18,6.00
2011,05,29,03,19,5.90
2011,05,29,03,20,5.90
2011,05,29,03,21,5.90
2011,05,29,03,22,5.90
2011,05,29,03,23,5.90
2011,05,29,03,24,5.90
2011,05,29,03,25,6.00
2011,05,29,03,26,6.00
2011,05,29,03,27,6.10
2011,05,29,03,28,6.10
2011,05,29,03,29,6.10
2011,05,29,03,30,6.10
2011,05,29,03,31,6.20
2011,05,29,03,32,6.20
2011,05,29,03,33,6.20
2011,05,29,03,34,6.30
2011,05,29,03,35,6.30
2011,05,29,03,36,6.30
2011,05,29,03,37,6.30
2011,05,29,03,38,6.30
2011,05,29,03,39,6.40
2011,05,29,03,40,6.40
2011,05,29,03,41,6.40
2011,05,29,03,42,6.40
2011,05,29,03,43,6.30
2011,05,29,03,44,6.30
2011,05,29,03,45,6.30
2011,05,29,03,46,6.30
2011,05,29,03,47,6.30
2011,05,29,03,48,6.30
2011,05,29,03,49,6.30
2011,05,29,03,50,6.30
2011,05,29,03,51,6.20
2011,05,29,03,52,6.20
2011,05,29,03,53,6.20
2011,05,29,03,54,6.20
2011,05,29,03,55,6.20
2011,05,29,03,56,6.20
2011,05,29,03,57,6.20
2011,05,29,03,58,6.20
2011,05,29,03,59,6.10
2011,05,29,04,00,6.10
2011,05,29,04,01,6.10
2011,05,29,04,02,6.10
2011,05,29,04,03,6.10
2011,05,29,04,04,6.10
2011,05,29,04,05,6.10
2011,05,29,04,06,6.10
2011,05,29,04,07,6.00
2011,05,29,04,08,6.00
2011,05,29,04,09,6.00
2011,05,29,04,10,5.90
2011,05,29,04,11,5.90
2011,05,29,04,12,5.90
2011,05,29,04,13,5.90
2011,05,29,04,14,5.90
2011,05,29,04,15,5.90
2011,05,29,04,16,5.90
2011,05,29,04,17,5.90
2011,05,29,04,18,5.90
2011,05,29,04,19,5.90
2011,05,29,04,20,5.90
2011,05,29,04,21,5.90
2011,05,29,04,22,5.90
2011,05,29,04,23,5.90
2011,05,29,04,24,5.90
2011,05,29,04,25,5.90
2011,05,29,04,26,5.80
2011,05,29,04,27,5.80
2011,05,29,04,28,5.80
2011,05,29,04,29,5.80
2011,05,29,04,30,5.80
2011,05,29,04,31,5.80
2011,05,29,04,32,5.80
2011,05,29,04,33,5.80
2011,05,29,04,34,5.80
2011,05,29,04,35,5.80
2011,05,29,04,36,5.80
2011,05,29,04,37,5.70
2011,05,29,04,38,5.70
2011,05,29,04,39,5.70
2011,05,29,04,40,5.70
2011,05,29,04,41,5.70
2011,05,29,04,42,5.70
2011,05,29,04,43,5.70
2011,05,29,04,44,5.70
2011,05,29,04,45,5.70
2011,05,29,04,46,5.60
2011,05,29,04,47,5.60
2011,05,29,04,48,5.60
2011,05,29,04,49,5.60
2011,05,29,04,50,5.60
2011,05,29,04,51,5.50
2011,05,29,04,52,5.60
2011,05,29,04,53,5.60
2011,05,29,04,54,5.60
2011,05,29,04,55,5.60
2011,05,29,04,56,5.60
2011,05,29,04,57,5.60
2011,05,29,04,58,5.70
2011,05,29,04,59,5.70
2011,05,29,05,00,5.70
2011,05,29,05,01,5.70
2011,05,29,05,02,5.70
2011,05,29,05,03,5.70
2011,05,29,05,04,5.70
2011,05,29,05,05,5.70
2011,05,29,05,06,5.70
2011,05,29,05,07,5.60
2011,05,29,05,08,5.60
2011,05,29,05,09,5.60
2011,05,29,05,10,5.60
2011,05,29,05,11,5.50
2011,05,29,05,12,5.50
2011,05,29,05,13,5.50
2011,05,29,05,14,5.50
2011,05,29,05,15,5.50
2011,05,29,05,16,5.50
2011,05,29,05,17,5.40
2011,05,29,05,18,5.40
2011,05,29,05,19,5.40
2011,05,29,05,20,5.40
2011,05,29,05,21,5.40
2011,05,29,05,22,5.40
2011,05,29,05,23,5.40
2011,05,29,05,24,5.40
2011,05,29,05,25,5.40
2011,05,29,05,26,5.40
2011,05,29,05,27,5.40
2011,05,29,05,28,5.40
2011,05,29,05,29,5.40
2011,05,29,05,30,5.40
2011,05,29,05,31,5.40
2011,05,29,05,32,5.40
2011,05,29,05,33,5.40
2011,05,29,05,34,5.40
2011,05,29,05,35,5.40
2011,05,29,05,36,5.40
2011,05,29,05,37,5.40
2011,05,29,05,38,5.40
2011,05,29,05,39,5.40
2011,05,29,05,40,5.40
2011,05,29,05,41,5.40
2011,05,29,05,42,5.40
2011,05,29,05,43,5.40
2011,05,29,05,44,5.40
2011,05,29,05,45,5.40
2011,05,29,05,46,5.40
2011,05,29,05,47,5.30
2011,05,29,05,48,5.30
2011,05,29,05,49,5.30
2011,05,29,05,50,5.30
2011,05,29,05,51,5.30
2011,05,29,05,52,5.30
2011,05,29,05,53,5.30
2011,05,29,05,54,5.30
2011,05,29,05,55,5.20
2011,05,29,05,56,5.20
2011,05,29,05,57,5.20
2011,05,29,05,58,5.20
2011,05,29,05,59,5.20
2011,05,29,06,00,5.30
2011,05,29,06,01,5.30
2011,05,29,06,02,5.30
2011,05,29,06,03,5.30
2011,05,29,06,04,5.30
2011,05,29,06,05,5.30
2011,05,29,06,06,5.30
2011,05,29,06,07,5.30
2011,05,29,06,08,5.30
2011,05,29,06,09,5.30
2011,05,29,06,10,5.30
2011,05,29,06,11,5.30
2011,05,29,06,12,5.30
2011,05,29,06,13,5.30
2011,05,29,06,14,5.30
2011,05,29,06,15,5.30
2011,05,29,06,16,5.30
2011,05,29,06,17,5.40
2011,05,29,06,18,5.40
2011,05,29,06,19,5.40
2011,05,29,06,20,5.40
2011,05,29,06,21,5.40
2011,05,29,06,22,5.50
2011,05,29,06,23,5.50
2011,05,29,06,24,5.60
2011,05,29,06,25,5.60
2011,05,29,06,26,5.60
2011,05,29,06,27,5.60
2011,05,29,06,28,5.60
2011,05,29,06,29,5.70
2011,05,29,06,30,5.70
2011,05,29,06,31,5.70
2011,05,29,06,32,5.70
2011,05,29,06,33,5.70
2011,05,29,06,34,5.70
2011,05,29,06,35,5.70
2011,05,29,06,36,5.70
2011,05,29,06,37,5.70
2011,05,29,06,38,5.80
2011,05,29,06,39,5.80
2011,05,29,06,40,5.80
2011,05,29,06,41,5.80
2011,05,29,06,42,5.80
2011,05,29,06,43,5.80
2011,05,29,06,44,5.80
2011,05,29,06,45,5.80
2011,05,29,06,46,5.80
2011,05,29,06,47,5.80
2011,05,29,06,48,5.80
2011,05,29,06,49,5.90
2011,05,29,06,50,5.90
2011,05,29,06,51,5.90
2011,05,29,06,52,5.90
2011,05,29,06,53,5.90
2011,05,29,06,54,5.90
2011,05,29,06,55,5.90
2011,05,29,06,56,5.90
2011,05,29,06,57,6.00
2011,05,29,06,58,6.00
2011,05,29,06,59,6.00
2011,05,29,07,00,6.00
2011,05,29,07,01,6.10
2011,05,29,07,02,6.10
2011,05,29,07,03,6.10
2011,05,29,07,04,6.10
2011,05,29,07,05,6.20
2011,05,29,07,06,6.20
2011,05,29,07,07,6.20
2011,05,29,07,08,6.20
2011,05,29,07,09,6.30
2011,05,29,07,10,6.30
2011,05,29,07,11,6.40
2011,05,29,07,12,6.40
2011,05,29,07,13,6.40
2011,05,29,07,14,6.40
2011,05,29,07,15,6.40
2011,05,29,07,16,6.40
2011,05,29,07,17,6.40
2011,05,29,07,18,6.40
2011,05,29,07,19,6.50
2011,05,29,07,20,6.50
2011,05,29,07,21,6.60
2011,05,29,07,22,6.60
2011,05,29,07,23,6.60
2011,05,29,07,24,6.70
2011,05,29,07,25,6.70
2011,05,29,07,26,6.70
2011,05,29,07,27,6.80
2011,05,29,07,28,6.80
2011,05,29,07,29,6.80
2011,05,29,07,30,6.80
2011,05,29,07,31,6.90
2011,05,29,07,32,6.90
2011,05,29,07,33,6.90
2011,05,29,07,34,7.00
2011,05,29,07,35,7.00
2011,05,29,07,36,7.00
2011,05,29,07,37,7.10
2011,05,29,07,38,7.10
2011,05,29,07,39,7.10
2011,05,29,07,40,7.20
2011,05,29,07,41,7.20
2011,05,29,07,42,7.30
2011,05,29,07,43,7.30
2011,05,29,07,44,7.30
2011,05,29,07,45,7.40
2011,05,29,07,46,7.40
2011,05,29,07,47,7.50
2011,05,29,07,48,7.60
2011,05,29,07,49,7.70
2011,05,29,07,50,7.70
2011,05,29,07,51,7.80
2011,05,29,07,52,7.80
2011,05,29,07,53,7.90
2011,05,29,07,54,7.90
2011,05,29,07,55,8.00
2011,05,29,07,56,8.00
2011,05,29,07,57,8.10
2011,05,29,07,58,8.20
2011,05,29,07,59,8.20
2011,05,29,08,00,8.30
2011,05,29,08,01,8.30
2011,05,29,08,02,8.40
2011,05,29,08,03,8.50
2011,05,29,08,04,8.60
2011,05,29,08,05,8.70
2011,05,29,08,06,8.80
2011,05,29,08,07,8.90
2011,05,29,08,08,8.90
2011,05,29,08,09,9.00
2011,05,29,08,10,9.10
2011,05,29,08,11,9.20
2011,05,29,08,12,9.20
2011,05,29,08,13,9.30
2011,05,29,08,14,9.40
2011,05,29,08,15,9.50
2011,05,29,08,16,9.50
2011,05,29,08,17,9.60
2011,05,29,08,18,9.70
2011,05,29,08,19,9.80
2011,05,29,08,20,9.80
2011,05,29,08,21,9.90
2011,05,29,08,22,10.00
2011,05,29,08,23,10.10
2011,05,29,08,24,10.10
2011,05,29,08,25,10.20
2011,05,29,08,26,10.20
2011,05,29,08,27,10.20
2011,05,29,08,28,10.20
2011,05,29,08,29,10.20
2011,05,29,08,30,10.20
2011,05,29,08,31,10.30
2011,05,29,08,32,10.30
2011,05,29,08,33,10.40
2011,05,29,08,34,10.40
2011,05,29,08,35,10.40
2011,05,29,08,36,10.40
2011,05,29,08,37,10.40
2011,05,29,08,38,10.40
2011,05,29,08,39,10.40
2011,05,29,08,40,10.40
2011,05,29,08,41,10.40
2011,05,29,08,42,10.50
2011,05,29,08,43,10.50
2011,05,29,08,44,10.60
2011,05,29,08,45,10.60
2011,05,29,08,46,10.60
2011,05,29,08,47,10.70
2011,05,29,08,48,10.70
2011,05,29,08,49,10.70
2011,05,29,08,50,10.80
2011,05,29,08,51,10.80
2011,05,29,08,52,10.80
2011,05,29,08,53,10.90
2011,05,29,08,54,10.90
2011,05,29,08,55,11.00
2011,05,29,08,56,11.10
2011,05,29,08,57,11.10
2011,05,29,08,58,11.20
2011,05,29,08,59,11.20
2011,05,29,09,00,11.20
2011,05,29,09,01,11.30
2011,05,29,09,02,11.30
2011,05,29,09,03,11.40
2011,05,29,09,04,11.40
2011,05,29,09,05,11.40
2011,05,29,09,06,11.40
2011,05,29,09,07,11.40
2011,05,29,09,08,11.40
2011,05,29,09,09,11.40
2011,05,29,09,10,11.30
2011,05,29,09,11,11.30
2011,05,29,09,12,11.30
2011,05,29,09,13,11.30
2011,05,29,09,14,11.30
2011,05,29,09,15,11.30
2011,05,29,09,16,11.20
2011,05,29,09,17,11.20
2011,05,29,09,18,11.20
2011,05,29,09,19,11.20
2011,05,29,09,20,11.10
2011,05,29,09,21,11.10
2011,05,29,09,22,11.10
2011,05,29,09,23,11.10
2011,05,29,09,24,11.10
2011,05,29,09,25,11.10
2011,05,29,09,26,11.10
2011,05,29,09,27,11.10
2011,05,29,09,28,11.10
2011,05,29,09,29,11.10
2011,05,29,09,30,11.10
2011,05,29,09,31,11.10
2011,05,29,09,32,11.10
2011,05,29,09,33,11.10
2011,05,29,09,34,11.10
2011,05,29,09,35,11.10
2011,05,29,09,36,11.20
2011,05,29,09,37,11.20
2011,05,29,09,38,11.20
2011,05,29,09,39,11.20
2011,05,29,09,40,11.20
2011,05,29,09,41,11.20
2011,05,29,09,42,11.20
2011,05,29,09,43,11.20
2011,05,29,09,44,11.30
2011,05,29,09,45,11.30
2011,05,29,09,46,11.30
2011,05,29,09,47,11.30
2011,05,29,09,48,11.30
2011,05,29,09,49,11.40
2011,05,29,09,50,11.40
2011,05,29,09,51,11.50
2011,05,29,09,52,11.50
2011,05,29,09,53,11.50
2011,05,29,09,54,11.50
2011,05,29,09,55,11.50
2011,05,29,09,56,11.50
2011,05,29,09,57,11.50
2011,05,29,09,58,11.60
2011,05,29,09,59,11.60
2011,05,29,10,00,11.60
2011,05,29,10,01,11.60
2011,05,29,10,02,11.60
2011,05,29,10,03,11.60
2011,05,29,10,04,11.60
2011,05,29,10,05,11.50
2011,05,29,10,06,11.50
2011,05,29,10,07,11.50
2011,05,29,10,08,11.50
2011,05,29,10,09,11.60
2011,05,29,10,10,11.60
2011,05,29,10,11,11.60
2011,05,29,10,12,11.60
2011,05,29,10,13,11.60
2011,05,29,10,14,11.60
2011,05,29,10,15,11.60
2011,05,29,10,16,11.70
2011,05,29,10,17,11.60
2011,05,29,10,18,11.60
2011,05,29,10,19,11.60
2011,05,29,10,20,11.60
2011,05,29,10,21,11.60
2011,05,29,10,22,11.60
2011,05,29,10,23,11.60
2011,05,29,10,24,11.60
2011,05,29,10,25,11.60
2011,05,29,10,26,11.60
2011,05,29,10,27,11.60
2011,05,29,10,28,11.70
2011,05,29,10,29,11.80
2011,05,29,10,30,11.90
2011,05,29,10,31,12.00
2011,05,29,10,32,12.10
2011,05,29,10,33,12.10
2011,05,29,10,34,12.10
2011,05,29,10,35,12.10
2011,05,29,10,36,12.10
2011,05,29,10,37,12.10
2011,05,29,10,38,12.10
2011,05,29,10,39,12.00
2011,05,29,10,40,11.90
2011,05,29,10,41,11.90
2011,05,29,10,42,11.90
2011,05,29,10,43,11.90
2011,05,29,10,44,11.90
2011,05,29,10,45,11.90
2011,05,29,10,46,11.90
2011,05,29,10,47,12.00
2011,05,29,10,48,12.10
2011,05,29,10,49,12.20
2011,05,29,10,50,12.20
2011,05,29,10,51,12.30
2011,05,29,10,52,12.30
2011,05,29,10,53,12.30
2011,05,29,10,54,12.30
2011,05,29,10,55,12.20
2011,05,29,10,56,12.20
2011,05,29,10,57,12.20
2011,05,29,10,58,12.20
2011,05,29,10,59,12.20
2011,05,29,11,00,12.20
2011,05,29,11,01,12.20
2011,05,29,11,02,12.20
2011,05,29,11,03,12.20
2011,05,29,11,04,12.20
2011,05,29,11,05,12.30
2011,05,29,11,06,12.30
2011,05,29,11,07,12.40
2011,05,29,11,08,12.50
2011,05,29,11,09,12.60
2011,05,29,11,10,12.60
2011,05,29,11,11,12.60
2011,05,29,11,12,12.60
2011,05,29,11,13,12.60
2011,05,29,11,14,12.60
2011,05,29,11,15,12.60
2011,05,29,11,16,12.60
2011,05,29,11,17,12.60
2011,05,29,11,18,12.60
2011,05,29,11,19,12.60
2011,05,29,11,20,12.60
2011,05,29,11,21,12.60
2011,05,29,11,22,12.70
2011,05,29,11,23,12.70
2011,05,29,11,24,12.70
2011,05,29,11,25,12.70
2011,05,29,11,26,12.70
2011,05,29,11,27,12.70
2011,05,29,11,28,12.70
2011,05,29,11,29,12.70
2011,05,29,11,30,12.60
2011,05,29,11,31,12.50
2011,05,29,11,32,12.50
2011,05,29,11,33,12.50
2011,05,29,11,34,12.50
2011,05,29,11,35,12.40
2011,05,29,11,36,12.40
2011,05,29,11,37,12.40
2011,05,29,11,38,12.40
2011,05,29,11,39,12.40
2011,05,29,11,40,12.40
2011,05,29,11,41,12.30
2011,05,29,11,42,12.30
2011,05,29,11,43,12.30
2011,05,29,11,44,12.30
2011,05,29,11,45,12.30
2011,05,29,11,46,12.20
2011,05,29,11,47,12.20
2011,05,29,11,48,12.20
2011,05,29,11,49,12.20
2011,05,29,11,50,12.20
2011,05,29,11,51,12.20
2011,05,29,11,52,12.10
2011,05,29,11,53,12.00
2011,05,29,11,54,12.00
2011,05,29,11,55,11.90
2011,05,29,11,56,12.00
2011,05,29,11,57,12.00
2011,05,29,11,58,11.90
2011,05,29,11,59,12.00
2011,05,29,12,00,12.00
2011,05,29,12,01,12.00
2011,05,29,12,02,12.00
2011,05,29,12,03,12.10
2011,05,29,12,04,12.10
2011,05,29,12,05,12.10
2011,05,29,12,06,12.00
2011,05,29,12,07,12.00
2011,05,29,12,08,12.00
2011,05,29,12,09,12.00
2011,05,29,12,10,12.10
2011,05,29,12,11,12.10
2011,05,29,12,12,12.10
2011,05,29,12,13,12.10
2011,05,29,12,14,12.10
2011,05,29,12,15,12.10
2011,05,29,12,16,12.00
2011,05,29,12,17,12.00
2011,05,29,12,18,12.00
2011,05,29,12,19,12.00
2011,05,29,12,20,12.00
2011,05,29,12,21,12.00
2011,05,29,12,22,12.00
2011,05,29,12,23,12.00
2011,05,29,12,24,12.00
2011,05,29,12,25,12.00
2011,05,29,12,26,12.00
2011,05,29,12,27,12.00
2011,05,29,12,28,11.90
2011,05,29,12,29,11.90
2011,05,29,12,30,11.80
2011,05,29,12,31,11.80
2011,05,29,12,32,11.80
2011,05,29,12,33,11.80
2011,05,29,12,34,11.80
2011,05,29,12,35,11.80
2011,05,29,12,36,11.80
2011,05,29,12,37,11.90
2011,05,29,12,38,11.90
2011,05,29,12,39,11.90
2011,05,29,12,40,11.90
2011,05,29,12,41,11.90
2011,05,29,12,42,11.90
2011,05,29,12,43,11.90
2011,05,29,12,44,11.90
2011,05,29,12,45,11.90
2011,05,29,12,46,11.90
2011,05,29,12,47,11.90
2011,05,29,12,48,11.80
2011,05,29,12,49,11.80
2011,05,29,12,50,11.80
2011,05,29,12,51,11.80
2011,05,29,12,52,11.80
2011,05,29,12,53,11.80
2011,05,29,12,54,11.80
2011,05,29,12,55,11.80
2011,05,29,12,56,11.90
2011,05,29,12,57,11.90
2011,05,29,12,58,11.90
2011,05,29,12,59,11.90
2011,05,29,13,00,11.90
2011,05,29,13,01,11.90
2011,05,29,13,02,11.90
2011,05,29,13,03,11.90
2011,05,29,13,04,11.90
2011,05,29,13,05,11.90
2011,05,29,13,06,11.80
2011,05,29,13,07,11.70
2011,05,29,13,08,11.70
2011,05,29,13,09,11.80
2011,05,29,13,10,11.90
2011,05,29,13,11,11.90
2011,05,29,13,12,11.90
2011,05,29,13,13,11.90
2011,05,29,13,14,11.90
2011,05,29,13,15,11.90
2011,05,29,13,16,12.00
2011,05,29,13,17,12.00
2011,05,29,13,18,12.10
2011,05,29,13,19,12.00
2011,05,29,13,20,12.00
2011,05,29,13,21,11.90
2011,05,29,13,22,12.00
2011,05,29,13,23,12.00
2011,05,29,13,24,12.00
2011,05,29,13,25,11.90
2011,05,29,13,26,11.90
2011,05,29,13,27,11.90
2011,05,29,13,28,11.90
2011,05,29,13,29,11.90
2011,05,29,13,30,11.80
2011,05,29,13,31,11.80
2011,05,29,13,32,11.80
2011,05,29,13,33,11.80
2011,05,29,13,34,11.80
2011,05,29,13,35,11.90
2011,05,29,13,36,11.90
2011,05,29,13,37,12.00
2011,05,29,13,38,12.00
2011,05,29,13,39,12.00
2011,05,29,13,40,12.00
2011,05,29,13,41,12.00
2011,05,29,13,42,12.00
2011,05,29,13,43,12.10
2011,05,29,13,44,12.10
2011,05,29,13,45,12.20
2011,05,29,13,46,12.20
2011,05,29,13,47,12.20
2011,05,29,13,48,12.20
2011,05,29,13,49,12.10
2011,05,29,13,50,12.20
2011,05,29,13,51,12.20
2011,05,29,13,52,12.20
2011,05,29,13,53,12.10
2011,05,29,13,54,12.10
2011,05,29,13,55,12.10
2011,05,29,13,56,12.20
2011,05,29,13,57,12.20
2011,05,29,13,58,12.20
2011,05,29,13,59,12.20
2011,05,29,14,00,12.20
2011,05,29,14,01,12.20
2011,05,29,14,02,12.10
2011,05,29,14,03,12.20
2011,05,29,14,04,12.10
2011,05,29,14,05,12.10
2011,05,29,14,06,12.00
2011,05,29,14,07,12.00
2011,05,29,14,08,11.90
2011,05,29,14,09,11.80
2011,05,29,14,10,11.80
2011,05,29,14,11,11.70
2011,05,29,14,12,11.60
2011,05,29,14,13,11.60
2011,05,29,14,14,11.60
2011,05,29,14,15,11.70
2011,05,29,14,16,11.70
2011,05,29,14,17,11.70
2011,05,29,14,18,11.70
2011,05,29,14,19,11.80
2011,05,29,14,20,11.80
2011,05,29,14,21,11.90
2011,05,29,14,22,11.90
2011,05,29,14,23,12.00
2011,05,29,14,24,12.00
2011,05,29,14,25,11.90
2011,05,29,14,26,11.90
2011,05,29,14,27,11.90
2011,05,29,14,28,11.90
2011,05,29,14,29,11.90
2011,05,29,14,30,11.90
2011,05,29,14,31,12.00
2011,05,29,14,32,12.00
2011,05,29,14,33,11.90
2011,05,29,14,34,11.90
2011,05,29,14,35,11.90
2011,05,29,14,36,11.90
2011,05,29,14,37,11.80
2011,05,29,14,38,11.70
2011,05,29,14,39,11.70
2011,05,29,14,40,11.60
2011,05,29,14,41,11.60
2011,05,29,14,42,11.60
2011,05,29,14,43,11.60
2011,05,29,14,44,11.50
2011,05,29,14,45,11.50
2011,05,29,14,46,11.50
2011,05,29,14,47,11.50
2011,05,29,14,48,11.50
2011,05,29,14,49,11.60
2011,05,29,14,50,11.60
2011,05,29,14,51,11.60
2011,05,29,14,52,11.60
2011,05,29,14,53,11.60
2011,05,29,14,54,11.50
2011,05,29,14,55,11.50
2011,05,29,14,56,11.50
2011,05,29,14,57,11.50
2011,05,29,14,58,11.50
2011,05,29,14,59,11.50
2011,05,29,15,00,11.60
2011,05,29,15,01,11.60
2011,05,29,15,02,11.70
2011,05,29,15,03,11.70
2011,05,29,15,04,11.70
2011,05,29,15,05,11.80
2011,05,29,15,06,11.80
2011,05,29,15,07,11.80
2011,05,29,15,08,11.80
2011,05,29,15,09,11.80
2011,05,29,15,10,11.80
2011,05,29,15,11,11.80
2011,05,29,15,12,11.70
2011,05,29,15,13,11.70
2011,05,29,15,14,11.80
2011,05,29,15,15,11.80
2011,05,29,15,16,11.80
2011,05,29,15,17,11.80
2011,05,29,15,18,11.80
2011,05,29,15,19,11.80
2011,05,29,15,20,11.80
2011,05,29,15,21,11.80
2011,05,29,15,22,11.80
2011,05,29,15,23,11.80
2011,05,29,15,24,11.70
2011,05,29,15,25,11.70
2011,05,29,15,26,11.70
2011,05,29,15,27,11.70
2011,05,29,15,28,11.70
2011,05,29,15,29,11.70
2011,05,29,15,30,11.70
2011,05,29,15,31,11.70
2011,05,29,15,32,11.70
2011,05,29,15,33,11.70
2011,05,29,15,34,11.70
2011,05,29,15,35,11.70
2011,05,29,15,36,11.70
2011,05,29,15,37,11.70
2011,05,29,15,38,11.60
2011,05,29,15,39,11.60
2011,05,29,15,40,11.60
2011,05,29,15,41,11.50
2011,05,29,15,42,11.50
2011,05,29,15,43,11.60
2011,05,29,15,44,11.60
2011,05,29,15,45,11.50
2011,05,29,15,46,11.50
2011,05,29,15,47,11.40
2011,05,29,15,48,11.50
2011,05,29,15,49,11.50
2011,05,29,15,50,11.50
2011,05,29,15,51,11.50
2011,05,29,15,52,11.60
2011,05,29,15,53,11.60
2011,05,29,15,54,11.60
2011,05,29,15,55,11.60
2011,05,29,15,56,11.60
2011,05,29,15,57,11.50
2011,05,29,15,58,11.40
2011,05,29,15,59,11.40
2011,05,29,16,00,11.30
2011,05,29,16,01,11.20
2011,05,29,16,02,11.20
2011,05,29,16,03,11.20
2011,05,29,16,04,11.30
2011,05,29,16,05,11.20
2011,05,29,16,06,11.20
2011,05,29,16,07,11.20
2011,05,29,16,08,11.20
2011,05,29,16,09,11.30
2011,05,29,16,10,11.20
2011,05,29,16,11,11.30
2011,05,29,16,12,11.20
2011,05,29,16,13,11.20
2011,05,29,16,14,11.20
2011,05,29,16,15,11.20
2011,05,29,16,16,11.20
2011,05,29,16,17,11.20
2011,05,29,16,18,11.20
2011,05,29,16,19,11.20
2011,05,29,16,20,11.10
2011,05,29,16,21,11.10
2011,05,29,16,22,11.10
2011,05,29,16,23,11.10
2011,05,29,16,24,11.10
2011,05,29,16,25,11.00
2011,05,29,16,26,11.00
2011,05,29,16,27,11.00
2011,05,29,16,28,11.00
2011,05,29,16,29,11.00
2011,05,29,16,30,11.00
2011,05,29,16,31,11.00
2011,05,29,16,32,11.00
2011,05,29,16,33,11.00
2011,05,29,16,34,11.00
2011,05,29,16,35,11.10
2011,05,29,16,36,11.10
2011,05,29,16,37,11.10
2011,05,29,16,38,11.10
2011,05,29,16,39,11.10
2011,05,29,16,40,11.10
2011,05,29,16,41,11.10
2011,05,29,16,42,11.10
2011,05,29,16,43,11.10
2011,05,29,16,44,11.10
2011,05,29,16,45,11.10
2011,05,29,16,46,11.10
2011,05,29,16,47,11.10
2011,05,29,16,48,11.10
2011,05,29,16,49,11.00
2011,05,29,16,50,11.00
2011,05,29,16,51,10.90
2011,05,29,16,52,10.90
2011,05,29,16,53,10.90
2011,05,29,16,54,10.90
2011,05,29,16,55,10.80
2011,05,29,16,56,10.80
2011,05,29,16,57,10.80
2011,05,29,16,58,10.80
2011,05,29,16,59,10.80
2011,05,29,17,00,10.80
2011,05,29,17,01,10.80
2011,05,29,17,02,10.80
2011,05,29,17,03,10.80
2011,05,29,17,04,10.80
2011,05,29,17,05,10.80
2011,05,29,17,06,10.80
2011,05,29,17,07,10.80
2011,05,29,17,08,10.80
2011,05,29,17,09,10.70
2011,05,29,17,10,10.70
2011,05,29,17,11,10.60
2011,05,29,17,12,10.60
2011,05,29,17,13,10.50
2011,05,29,17,14,10.50
2011,05,29,17,15,10.60
2011,05,29,17,16,10.60
2011,05,29,17,17,10.60
2011,05,29,17,18,10.60
2011,05,29,17,19,10.60
2011,05,29,17,20,10.50
2011,05,29,17,21,10.50
2011,05,29,17,22,10.50
2011,05,29,17,23,10.40
2011,05,29,17,24,10.40
2011,05,29,17,25,10.30
2011,05,29,17,26,10.30
2011,05,29,17,27,10.30
2011,05,29,17,28,10.30
2011,05,29,17,29,10.30
2011,05,29,17,30,10.30
2011,05,29,17,31,10.30
2011,05,29,17,32,10.30
2011,05,29,17,33,10.30
2011,05,29,17,34,10.30
2011,05,29,17,35,10.30
2011,05,29,17,36,10.30
2011,05,29,17,37,10.30
2011,05,29,17,38,10.30
2011,05,29,17,39,10.30
2011,05,29,17,40,10.30
2011,05,29,17,41,10.30